www.pogodaiklimat.ru

Погода и климат >> Архив погоды >> Великобритания >> Сейнт Атан


ПОГОДА в Сейнт Атан

  • Прогноз погоды в Сейнт Атан
  • Монитор погоды в Сейнт Атан

АРХИВ ПОГОДЫ в Сейнт Атан

Время (UTC), дата Ветер
(напр.,м/с)
 
Видим.   Явления Облачность Т
(С)
Тd
(С)
f
(%)
Тe
(С)
Тes
(С)
Комфортность P
(гПа)
Po
(гПа)
Тmin
(С)
Tmax
(С)
R
(мм)
R24
(мм)
S
(см)
19 16.09 З 3 20 км в посл. час морось н/о +17.0 +16.0 94 +17 +17 1022.6 1016.7
20 16.09 В 3 22 км н/о +16.9 +15.9 94 +17 +17 1023.3 1017.4
21 16.09 В 3 16 км в посл. час дождь н/о +16.1 +15.1 94 +16 +16 1023.6 1017.7
22 16.09 В 4 30 км н/о +15.4 +12.9 85 +15 +15 1023.8 1017.9
23 16.09 В 5 28 км н/о +14.8 +12.0 83 +13 +13 1023.7 1017.8
00 17.09 В 5 45 км н/о +14.0 +10.8 81 +12 +12 1024.1 1018.2 0.0
01 17.09 В 4 65 км н/о +13.5 +10.0 79 +12 +12 1024.4 1018.5
02 17.09 В 4 65 км н/о +13.2 +9.5 78 +12 +12 1024.4 1018.5
03 17.09 В 3 65 км н/о +12.7 +9.7 82 +11 +11 1024.5 1018.5
04 17.09 В 3 65 км н/о +12.6 +9.5 81 +11 +11 1024.5 1018.6
05 17.09 СВ 2 70 км н/о +12.5 +9.6 82 +12 +12 1025.0 1019.0
06 17.09 В 3 60 км н/о +12.0 +8.2 78 +11 +11 1025.1 1019.1 +12.0 0.0
07 17.09 СВ 3 55 км н/о +11.8 +8.4 80 +10 +10 1026.0 1020.0
08 17.09 СВ 4 65 км н/о +12.9 +8.3 74 +11 +11 1026.5 1020.5
09 17.09 СВ 5 60 км н/о +13.8 +8.4 70 +12 +12 1026.5 1020.6
10 17.09 СВ 3 55 км н/о +15.5 +8.9 65 +15 +15 1026.5 1020.6
11 17.09 С 3 55 км н/о +16.2 +9.4 64 +16 +16 1026.6 1020.6
12 17.09 С 4 >70 км н/о +17.0 +7.6 54 +17 +17 1026.4 1020.5
13 17.09 ЮЗ 3 40 км н/о +17.1 +10.4 65 +17 +17 1026.0 1020.1
14 17.09 ЮЗ 4 50 км н/о +16.5 +9.9 65 +16 +16 1026.2 1020.3
15 17.09 ЮЗ 3 45 км н/о +16.6 +9.7 64 +16 +16 1026.0 1020.1
16 17.09 ЮЗ 3 60 км н/о +16.5 +10.0 65 +16 +16 1025.8 1019.9
17 17.09 З 2 50 км н/о +16.3 +9.5 64 +17 +17 1026.1 1020.2
18 17.09 З 2 50 км н/о +15.8 +9.9 68 +16 +16 1026.1 1020.2 +17.7
19 17.09 С 1 50 км н/о +14.7 +9.9 73 +16 +16 1026.6 1020.6
20 17.09 СВ 3 45 км н/о +12.7 +8.9 78 +12 +12 1027.1 1021.1
21 17.09 С 3 35 км н/о +12.5 +8.3 76 +11 +11 1027.5 1021.5
22 17.09 СВ 3 40 км н/о +11.5 +7.8 78 +10 +10 1028.1 1022.1
23 17.09 СВ 4 40 км н/о +11.0 +7.6 80 +9 +9 1028.0 1022.0
00 18.09 СВ 4 40 км н/о +11.2 +7.9 80 +9 +9 1028.1 1022.1
01 18.09 СВ 4 40 км н/о +10.4 +7.4 82 +8 +8 1028.5 1022.4
02 18.09 СВ 5 45 км н/о +10.5 +7.3 81 +8 +8 1028.6 1022.5
03 18.09 СВ 4 40 км н/о +9.7 +7.0 83 +7 +7 1028.7 1022.6
04 18.09 СВ 4 40 км н/о +9.2 +6.9 86 +6 +6 1028.6 1022.6
05 18.09 СВ 4 35 км н/о +9.3 +7.2 87 +7 +7 1029.0 1022.9
06 18.09 СВ 3 35 км н/о +9.0 +6.9 87 +6 +6 1029.4 1023.3 +8.5
07 18.09 СВ 3 35 км н/о +10.0 +7.4 84 +8 +8 1029.7 1023.6
08 18.09 СВ 4 35 км н/о +11.9 +8.9 82 +10 +10 1030.1 1024.1
09 18.09 В 4 30 км н/о +13.6 +9.3 75 +12 +12 1030.6 1024.6
10 18.09 ЮВ 3 40 км н/о +14.6 +7.9 64 +14 +14 1030.6 1024.7
11 18.09 ЮВ 3 45 км н/о +15.3 +7.2 58 +15 +15 1030.6 1024.7
12 18.09 Ю 2 45 км н/о +15.9 +6.1 52 +16 +16 1030.5 1024.6
13 18.09 Ю 2 45 км н/о +16.4 +7.0 54 +17 +17 1030.2 1024.3
14 18.09 Ю 3 45 км н/о +16.8 +8.2 57 +17 +17 1029.7 1023.8
15 18.09 Ю 2 45 км н/о +16.7 +7.6 55 +17 +17 1029.5 1023.6
16 18.09 ЮЗ 3 45 км н/о +16.8 +7.0 52 +17 +17 1029.3 1023.4
17 18.09 З 1 40 км н/о +17.2 +6.5 49 +18 +18 1029.1 1023.2
18 18.09 З 1 45 км н/о +16.1 +6.5 53 +17 +17 1029.3 1023.4 +17.5
19 18.09 СЗ 2 45 км н/о +15.0 +7.4 60 +15 +15 1029.6 1023.7
20 18.09 С 2 40 км н/о +13.3 +7.2 67 +13 +13 1030.1 1024.1
21 18.09 С 2 40 км н/о +12.7 +7.7 72 +12 +12 1030.3 1024.3
22 18.09 С 2 30 км н/о +11.6 +7.8 77 +11 +11 1030.5 1024.5
23 18.09 СВ 2 25 км н/о +10.5 +7.8 83 +9 +9 1030.7 1024.6
00 19.09 СВ 3 29 км н/о +10.4 +7.9 84 +8 +8 1030.8 1024.8
01 19.09 СВ 3 35 км н/о +10.6 +8.2 85 +9 +9 1030.7 1024.6
02 19.09 СВ 2 35 км н/о +10.4 +7.7 83 +9 +9 1030.6 1024.6
03 19.09 СВ 2 35 км н/о +9.9 +7.7 86 +9 +9 1030.6 1024.5
04 19.09 СВ 2 35 км н/о +9.8 +7.7 87 +8 +8 1030.5 1024.4
05 19.09 С 3 30 км н/о +8.8 +7.2 90 +6 +6 1030.6 1024.5
06 19.09 СВ 3 30 км н/о +8.4 +7.0 91 +6 +6 1030.8 1024.7 +8.2
07 19.09 СВ 3 30 км н/о +9.7 +8.1 90 +8 +8 1031.0 1025.0
08 19.09 В 3 45 км н/о +13.0 +9.4 79 +12 +12 1031.5 1025.5
09 19.09 В 5 30 км н/о +14.7 +10.7 77 +13 +13 1031.9 1025.9
10 19.09 В 4 28 км н/о +16.3 +10.8 70 +16 +16 1031.7 1025.7
11 19.09 В 4 30 км н/о +17.6 +10.9 65 +17 +17 1031.6 1025.6
12 19.09 ЮВ 3 40 км н/о +18.7 +9.6 55 +19 +19 1031.3 1025.4
13 19.09 ЮВ 3 45 км н/о +18.5 +8.4 52 +19 +19 1031.0 1025.1
14 19.09 ЮВ 3 40 км н/о +18.7 +10.0 57 +20 +20 1030.3 1024.5
15 19.09 ЮВ 3 35 км н/о +19.3 +10.9 58 +21 +21 комфорт 1029.7 1023.9
16 19.09 В 2 50 км н/о +19.6 +10.1 54 +21 +21 комфорт 1029.2 1023.4
17 19.09 В 3 55 км н/о +19.3 +10.2 56 +21 +21 комфорт 1029.0 1023.2
18 19.09 В 2 55 км н/о +17.5 +10.1 62 +18 +18 1028.9 1023.0 +19.9
19 19.09 СВ 2 45 км н/о +16.0 +9.9 67 +16 +16 1028.9 1023.0
20 19.09 СВ 2 35 км н/о +14.4 +10.0 75 +14 +14 1028.9 1022.9
21 19.09 СВ 3 35 км н/о +13.0 +10.0 82 +12 +12 1028.8 1022.8
22 19.09 В 3 45 км н/о +14.3 +10.5 78 +13 +13 1028.6 1022.7
23 19.09 В 4 29 км н/о +12.2 +10.1 87 +10 +10 1028.5 1022.5
00 20.09 В 3 23 км н/о +12.1 +10.9 92 +11 +11 1028.5 1022.4
01 20.09 В 3 21 км н/о +12.1 +11.2 94 +11 +11 1028.2 1022.2
02 20.09 В 3 17 км н/о +11.4 +10.2 92 +9 +9 1027.9 1021.9
03 20.09 СВ 3 19 км н/о +11.3 +10.2 93 +9 +9 1027.5 1021.5
04 20.09 В 4 20 км н/о +10.8 +9.6 92 +8 +8 1027.0 1021.0
05 20.09 В 4 19 км н/о +11.0 +9.6 91 +9 +9 1026.3 1020.2
06 20.09 В 5 17 км н/о +11.1 +9.9 92 +8 +8 1025.8 1019.8 +10.7
07 20.09 В 5 18 км н/о +11.7 +10.3 91 +9 +9 1025.6 1019.6
08 20.09 В 6 28 км н/о +13.5 +11.2 86 +11 +11 1025.4 1019.5
09 20.09 В 7 30 км н/о +15.1 +11.1 77 +13 +13 1025.1 1019.2
10 20.09 В 7 35 км н/о +16.0 +11.4 74 +14 +14 1024.5 1018.6
11 20.09 В 7 35 км н/о +17.2 +10.8 66 +16 +16 1024.0 1018.1
12 20.09 В 7 45 км н/о +18.6 +9.9 57 +18 +18 1023.2 1017.3
13 20.09 В 7 55 км н/о +19.6 +9.7 53 +20 +20 1022.3 1016.5
14 20.09 В 8 50 км н/о +20.3 +8.8 48 +21 +21 комфорт 1020.9 1015.1
15 20.09 В 8 65 км н/о +20.9 +7.7 43 +22 +22 комфорт 1019.6 1013.8
16 20.09 В 8 65 км н/о +20.8 +5.8 38 +21 +21 комфорт 1018.6 1012.8
17 20.09 В 6 60 км н/о +20.1 +8.6 47 +21 +21 комфорт 1017.7 1011.9
18 20.09 В 5 65 км н/о +18.8 +7.2 47 +19 +19 1017.2 1011.4 +21.2
19 20.09 В 4 >70 км н/о +17.4 +5.8 46 +17 +17 1017.1 1011.3
20 20.09 В 5 >70 км н/о +16.1 +4.6 46 +15 +15 1017.1 1011.3
21 20.09 В 6 70 км н/о +15.5 +5.2 50 +14 +14 1016.7 1010.8
22 20.09 В 5 50 км н/о +14.6 +5.7 55 +13 +13 1016.6 1010.7
23 20.09 В 5 35 км н/о +13.4 +7.7 68 +11 +11 1016.0 1010.1
00 21.09 В 5 35 км н/о +12.7 +7.7 72 +11 +11 1015.1 1009.1
01 21.09 В 7 35 км н/о +12.5 +7.6 72 +10 +10 1014.4 1008.4
02 21.09 В 6 40 км н/о +12.3 +7.9 74 +10 +10 1013.6 1007.7
03 21.09 В 6 40 км н/о +12.4 +8.1 75 +10 +10 1012.8 1006.9
04 21.09 В 6 40 км н/о +12.5 +8.6 77 +10 +10 1012.1 1006.2
05 21.09 В 6 40 км н/о +12.3 +8.8 79 +10 +10 1012.0 1006.1
06 21.09 В 7 35 км н/о +11.9 +8.6 80 +9 +9 1011.6 1005.7 +11.9
07 21.09 В 6 40 км н/о +12.5 +8.3 76 +10 +10 1011.2 1005.3
08 21.09 В 5 40 км н/о +13.8 +8.8 72 +12 +12 1010.7 1004.9
09 21.09 В 7 45 км н/о +15.7 +10.1 69 +14 +14 1010.4 1004.6
10 21.09 В 7 45 км н/о +17.0 +10.4 65 +16 +16 1009.7 1003.9
11 21.09 В 8 50 км н/о +18.5 +10.6 60 +18 +18 1009.0 1003.3
12 21.09 В 6 40 км н/о +20.4 +12.0 59 +22 +22 комфорт 1008.4 1002.7
13 21.09 В 7 40 км н/о +22.7 +13.4 56 +26 +26 жарко 1007.5 1001.8
14 21.09 В 7 45 км н/о +23.8 +14.7 57 +27 +27 жарко 1007.0 1001.3
15 21.09 В 7 40 км н/о +22.3 +14.5 61 +26 +26 жарко 1006.2 1000.5
16 21.09 В 6 40 км н/о +21.7 +15.1 66 +25 +25 комфорт 1005.8 1000.1
17 21.09 В 6 40 км н/о +21.4 +15.2 68 +25 +25 комфорт 1005.3 999.6
18 21.09 ЮВ 7 35 км н/о +20.1 +14.9 72 +22 +22 комфорт 1005.3 999.5 +23.8
19 21.09 ЮВ 6 35 км н/о +18.9 +14.4 75 +19 +19 1004.9 999.2
20 21.09 ЮВ 5 30 км н/о +18.4 +14.3 77 +19 +19 1004.9 999.1
21 21.09 В 4 30 км н/о +18.0 +14.7 81 +18 +18 1004.7 998.9
22 21.09 В 5 24 км н/о +18.0 +13.8 76 +18 +18 1004.2 998.4
23 21.09 В 4 29 км н/о +18.0 +13.6 75 +18 +18 1003.6 997.8
00 22.09 В 5 35 км н/о +17.7 +13.5 76 +17 +17 1002.9 997.2
01 22.09 В 4 30 км н/о +18.1 +14.1 77 +18 +18 1002.1 996.4
02 22.09 В 5 30 км н/о +18.1 +14.4 79 +18 +18 1001.8 996.1
03 22.09 В 5 23 км н/о +17.7 +15.6 88 +17 +17 1001.3 995.6
04 22.09 В 5 20 км н/о +17.2 +15.8 91 +17 +17 1000.5 994.8
05 22.09 В 4 16 км н/о +17.1 +16.0 93 +17 +17 1000.3 994.6
06 22.09 Ю 3 7000 м ливневой дождь н/о +17.2 +16.1 93 +17 +17 1000.5 994.8 +16.9 0.0
07 22.09 Ю 3 21 км ливневой дождь н/о +16.2 +14.6 90 +16 +16 1000.7 995.0
08 22.09 ЮВ 3 55 км слаб. дождь н/о +16.8 +15.4 91 +17 +17 1001.3 995.5
09 22.09 ЮВ 2 55 км слаб. ливневой дождь н/о +16.4 +14.9 91 +16 +16 1001.1 995.4
10 22.09 ЮВ 3 >70 км слаб. дождь н/о +16.6 +15.1 91 +16 +16 1001.3 995.5
11 22.09 ЮВ 4 70 км в посл. час дождь н/о +17.0 +15.2 89 +17 +17 1001.5 995.7
12 22.09 ЮВ 4 >70 км н/о +17.7 +15.0 84 +18 +18 1001.4 995.6 1
13 22.09 Ю 4 50 км н/о +19.0 +13.9 72 +20 +20 1001.3 995.5
14 22.09 Ю 5 50 км н/о +18.6 +14.6 78 +19 +19 1001.4 995.7
15 22.09 Ю 5 50 км н/о +18.0 +13.7 76 +18 +18 1001.7 996.0
16 22.09 Ю 4 60 км н/о +18.5 +13.7 74 +19 +19 1001.8 996.1
17 22.09 Ю 4 50 км н/о +17.2 +13.8 80 +17 +17 1002.1 996.3
18 22.09 З 4 40 км н/о +16.7 +13.3 80 +16 +16 1002.5 996.7 +19.9 1
19 22.09 ЮЗ 5 >70 км н/о +15.9 +12.4 80 +15 +15 1003.2 997.4
20 22.09 ЮЗ 6 45 км н/о +15.9 +13.5 86 +15 +15 1003.5 997.7
21 22.09 З 5 45 км в посл. час дождь н/о +15.6 +13.6 88 +14 +14 1004.3 998.5
22 22.09 З 6 35 км слаб. ливневой дождь н/о +15.8 +14.1 90 +14 +14 1004.8 999.0
23 22.09 З 6 2100 м сильн. ливневой дождь н/о +14.9 +13.6 92 +13 +13 1005.8 1000.0
00 23.09 З 5 40 км в посл. час дождь н/о +14.3 +13.3 94 +12 +12 1006.6 1000.8 5
01 23.09 З 5 27 км в посл. час дождь н/о +15.3 +13.5 89 +14 +14 1007.2 1001.3
02 23.09 З 7 30 км н/о +15.0 +12.3 84 +13 +13 1007.6 1001.8
03 23.09 З 6 40 км н/о +14.5 +10.9 79 +13 +13 1008.0 1002.1
04 23.09 ЮЗ 6 35 км н/о +14.4 +11.6 83 +13 +13 1008.2 1002.4
05 23.09 ЮЗ 5 40 км н/о +14.5 +11.4 82 +13 +13 1008.5 1002.6
06 23.09 ЮЗ 3 50 км н/о +14.1 +11.4 84 +13 +13 1008.7 1002.9 +14.0 5
07 23.09 ЮЗ 4 45 км н/о +14.4 +11.4 82 +13 +13 1009.0 1003.2
08 23.09 Ю 2 27 км н/о +15.0 +12.0 82 +15 +15 1009.0 1003.2
09 23.09 Ю 4 45 км н/о +16.5 +13.2 81 +16 +16 1009.3 1003.5
10 23.09 Ю 5 30 км н/о +16.4 +13.0 80 +15 +15 1008.7 1002.9
11 23.09 Ю 5 45 км н/о +16.5 +13.0 80 +16 +16 1007.9 1002.1
12 23.09 ЮВ 4 3600 м ливневой дождь н/о +15.8 +14.0 89 +15 +15 1007.6 1001.8 0.6
13 23.09 ЮВ 5 2500 м сильн. дождь н/о +15.1 +13.7 91 +14 +14 1007.1 1001.2
14 23.09 ЮВ 5 7000 м слаб. морось с дождем н/о +15.1 +13.8 92 +14 +14 1005.9 1000.1
15 23.09 Ю 6 60 км дождь н/о +15.8 +14.4 91 +14 +14 1004.9 999.1
16 23.09 Ю 7 35 км в посл. час дождь н/о +16.0 +14.8 93 +14 +14 1004.6 998.8
17 23.09 Ю 4 65 км н/о +16.6 +15.1 91 +16 +16 1004.4 998.6
18 23.09 Ю 4 30 км н/о +16.9 +15.3 90 +16 +16 1004.4 998.6 +16.9 6

 

Местоположение метеостанции Сейнт Атан (Великобритания): широта 51.40 долгота -3.43 высота над уровнем моря 49 м.

В архиве по умолчанию представлена погода в Сейнт Атан за последнюю неделю. Архивные данные за месяц целиком и за предыдущие месяцы, начиная с января 2011 года, Вы можете получить, выбрав интересующий диапазон дат из раскрывающегося списка и нажав кнопку "Ввод!".


*Определитесь, кто Вы:
робот инопланетянин человек

Внимание! Время в таблицах - всемирное. Для получения местного времени необходимо прибавить поправку, которая равна 0 ч.

Смотрите также архив погоды в соседних городах и на ближайших метеорологических станциях:

Погода в Лискомбе (Великобритания) (38 км)
Погода в Мамблсе (Великобритания) (43 км)
Погода в Филтоне (Великобритания) (60 км)
Погода в Данкесуэлле (Великобритания) (61 км)
Погода на Базе Chivenor (Великобритания) (61 км)
Погода в Йеавилтоне (Великобритания) (71 км)
Погода в Пембри Сэндс (Великобритания) (74 км)
Погода в Аэропорту Эксетер (Великобритания) (75 км)
Погода в Аэропорту Эксетер 2 (Великобритания) (75 км)
Погода в Сеннибридже (Великобритания) (76 км)

Пояснения к столбцам:

Ветер - указаны скорость ветра в м/с - средняя за 10 мин, порывы в срок и между сроками (в фигурных скобках) и направление, откуда дует ветер: С - северный, СВ - северо-восточный, В - восточный, ЮВ - юго-восточный, Ю - южный, ЮЗ - юго-западный, З - западный, СЗ - северо-западный.
Видимость - горизонтальная дальность видимости в метрах или километрах. При видимости от 1 до 10 км при отсутствии осадков обычно наблюдается дымка, при ухудшении видимости до 1 км и менее - туман. В сухую погоду видимость может ухудшаться дымом, пылью или мглою.
Явления - указаны атмосферные явления, наблюдавшиеся в срок или в последний час перед сроком; фигурными скобками обозначены явления, наблюдавшиеся между сроками (за 1-3 часа до срока); квадратными скобками обозначены град или гололедные отложения с указанием их диаметра в мм.
Облачность - указаны через наклонную черту общая и нижняя облачность в баллах и высота нижней границы облаков в метрах; квадратными скобками обозначены формы облаков: Ci - перистые, Cs - перисто-слоистые, Cc - перисто-кучевые, Ac - высококучевые, As - высокослоистые, Sc - слоисто-кучевые, Ns - слоисто-дождевые, Cu - кучевые, Cb - кучево-дождевые. Подробнее классификацию облаков см. в Атласе облаков (PDF).
T - Температура воздуха - температура, измеренная на высоте 2 м над землей.
Td - Температура точки росы - температура, при понижении до которой содержащийся в воздухе водяной пар достигнет насыщения.
f - Относительная влажность воздуха - влажноcть воздуха, измеренная на высоте 2 м над землей.
Te - Эффективная температура - температура, которую ощущает одетый по сезону человек в тени. Характеристика душности погоды. При расчете учитывается влияние влажности воздуха и скорости ветра на теплоощущения человека.
Tes - Эффективная температура на солнце - температура, которую ощущает человек, с поправкой на солнечный нагрев. Характеристика знойности погоды. Зависит от высоты солнца над горизонтом, облачности и скорости ветра. Ночью, в пасмурную погоду, а также при ветре 12 м/с и более поправка равна нулю.
P - Атмосферное давление - приведенное к уровню моря атмосферное давление.
Po - Атмосферное давление - измеренное на уровне метеостанции атмосферное давление.
Tmin - Минимальная температура - минимум температуры воздуха на высоте 2 м над землей.
Tmax - Максимальная температура - максимум температуры воздуха на высоте 2 м над землей.
R - Количество осадков - Количество выпавших осадков за период времени, мм. При наведении курсора мыши на число - период времени, за который выпало указанное количество осадков.
R24 - Количество осадков - Количество выпавших осадков за 24 часа, мм.
S - Снежный покров - Высота снежного покрова, см. При наведении курсора мыши на число - состояние снежного покрова и степень покрытия местности в баллах.